Location: Unspecified
(43.4680°N, 87.1740°E)
Time: 04:26:38
(UTC+00:00)

NOSS 3-3 (C) - Pass Details

Date: 17 April 2021
Orbit: 810 x 1402 km, 63.4° (Epoch: 14 May)

Event Time Altitude Azimuth Distance (km) Brightness Sun altitude
Exits shadow 21:03:13 47° 255° (WSW) 1,187 4.0 -23.1°
Maximum altitude 21:04:47 63° 311° (NW) 1,030 4.0 -22.8°
Drops below altitude 10° 21:11:17 10° 32° (NNE) 2,831 7.5 -22.0°
Sets 21:14:08 0° 36° (NE) 3,881 8.5 -21.6°
